Visibility
6.3 13.9 14.9 15.0 15.0 15.0 15.0 14.5 15.0 8.4 8.8 13.8 15.0 14.9 15.0 13.9 12.4 6.2 8.0 15.0 15.0 15.0 15.0 15.0 15.0 15.0 2.3 2.1 0.1 15.0 15.0 15.0 15.0 15.0 15.0 15.0 15.0 15.0 15.0 15.0 15.0 15.0 15.0 15.0 15.0 15.0 15.0 15.0 15.0 15.0 15.0 15.0 15.0 15.0
14.7 6.6 15.0 15.0 15.0 15.0 11.7 14.8 7.2 11.3 9.4 10.3 15.0 15.0 15.0 12.8 9.2 11.9 15.0 15.0 14.5 14.7 15.0 14.9 15.0 15.0 15.0 15.0 15.0 15.0 15.0 5.7 15.0 15.0 14.4 15.0 15.0 15.0 15.0 15.0 15.0 15.0 15.0 15.0 15.0 15.0 15.0 15.0 15.0 15.0 15.0 15.0 15.0 15.0
15.0 11.8 13.8 14.8 15.0 15.0 15.0 12.4 9.1 6.2 6.1 14.4 13.0 15.0 13.7 11.1 15.0 14.9 15.0 15.0 15.0 12.4 0.9 15.0 15.0 15.0 15.0 15.0 15.0 15.0 11.2 15.0 8.9 15.0 15.0 15.0 15.0 15.0 15.0 15.0 15.0 15.0 15.0 15.0 15.0 15.0 15.0 15.0 15.0 15.0 15.0 15.0 15.0 15.0
15.0 15.0 14.4 14.9 14.0 15.0 14.5 15.0 13.9 10.4 8.0 13.8 13.4 12.6 10.0 14.7 14.6 14.6 15.0 15.0 14.5 0.4 0.0 7.0 13.7 15.0 15.0 15.0 15.0 15.0 11.5 15.0 15.0 10.7 11.7 15.0 15.0 15.0 15.0 15.0 15.0 15.0 15.0 15.0 15.0 15.0 15.0 15.0 15.0 15.0 15.0 15.0 15.0 15.0
15.0 9.7 9.4 8.2 7.4 8.1 15.0 15.0 13.0 9.7 15.0 15.0 15.0 9.1 9.5 13.5 12.3 15.0 15.0 15.0 15.0 0.2 0.0 0.0 7.4 15.0 15.0 15.0 15.0 15.0 15.0 15.0 15.0 11.6 12.6 5.1 15.0 15.0 15.0 15.0 15.0 15.0 15.0 15.0 15.0 15.0 15.0 15.0 15.0 15.0 15.0 15.0 15.0 15.0
12.1 14.8 9.3 6.3 6.6 10.4 7.7 6.5 8.4 4.4 6.9 9.8 13.8 15.0 15.0 12.1 14.7 14.2 15.0 15.0 15.0 15.0 0.0 0.0 5.0 15.0 15.0 15.0 15.0 15.0 15.0 15.0 15.0 13.0 15.0 15.0 15.0 15.0 15.0 15.0 15.0 15.0 15.0 15.0 15.0 15.0 15.0 15.0 15.0 15.0 15.0 15.0 15.0 15.0
15.0 15.0 14.3 13.9 11.1 15.0 12.8 14.2 15.0 13.4 15.0 15.0 14.5 12.7 15.0 15.0 15.0 5.1 4.0 1.0 7.5 6.5 0.0 0.0 0.1 15.0 14.1 11.3 12.0 14.3 15.0 15.0 11.7 13.6 15.0 15.0 8.2 15.0 15.0 15.0 15.0 15.0 15.0 15.0 15.0 15.0 15.0 15.0 15.0 15.0 15.0 15.0 15.0 15.0
15.0 15.0 14.0 9.1 12.3 15.0 15.0 15.0 15.0 15.0 15.0 15.0 15.0 15.0 15.0 15.0 15.0 15.0 15.0 15.0 11.9 5.3 1.5 0.0 0.0 3.5 8.6 10.0 8.3 13.9 12.9 15.0 7.0 5.0 15.0 10.5 14.0 15.0 15.0 15.0 15.0 15.0 15.0 15.0 15.0 15.0 15.0 15.0 15.0 15.0 15.0 15.0 15.0 15.0
15.0 15.0 15.0 15.0 15.0 15.0 15.0 15.0 15.0 15.0 15.0 15.0 15.0 15.0 15.0 15.0 15.0 15.0 15.0 15.0 9.4 0.9 0.0 0.1 0.0 5.2 7.0 8.6 14.5 14.7 15.0 15.0 12.8 5.0 13.0 6.4 13.2 15.0 15.0 15.0 15.0 15.0 15.0 15.0 15.0 15.0 15.0 15.0 15.0 15.0 15.0 15.0 15.0 15.0
15.0 15.0 15.0 15.0 15.0 15.0 15.0 15.0 15.0 15.0 15.0 15.0 15.0 15.0 1.7 15.0 15.0 15.0 0.2 0.1 0.1 0.6 8.1 0.1 4.7 0.1 5.1 15.0 15.0 14.1 9.0 9.1 5.1 6.3 7.0 10.6 15.0 15.0 15.0 15.0 15.0 15.0 15.0 15.0 15.0 15.0 15.0 15.0 15.0 15.0 15.0 15.0 15.0 15.0
15.0 15.0 15.0 15.0 15.0 14.7 15.0 15.0 15.0 15.0 15.0 15.0 15.0 11.5 14.9 15.0 5.5 0.8 0.0 0.0 0.0 0.0 9.0 10.5 14.7 5.3 4.5 15.0 15.0 12.2 5.5 7.7 4.8 8.8 15.0 11.4 15.0 15.0 15.0 15.0 15.0 15.0 15.0 15.0 15.0 15.0 15.0 15.0 15.0 15.0 15.0 15.0 15.0 15.0
15.0 15.0 15.0 15.0 15.0 15.0 14.1 15.0 15.0 15.0 15.0 6.9 4.4 14.4 6.9 0.1 0.0 0.0 0.1 0.0 0.0 0.0 15.0 15.0 10.3 15.0 9.7 15.0 15.0 4.0 8.2 12.6 14.6 15.0 15.0 15.0 15.0 15.0 15.0 15.0 15.0 15.0 15.0 15.0 15.0 15.0 15.0 15.0 15.0 15.0 15.0 15.0 15.0 15.0
15.0 15.0 15.0 15.0 15.0 15.0 13.8 15.0 15.0 15.0 15.0 15.0 2.7 0.1 0.0 0.0 0.0 0.2 0.5 0.9 0.0 14.8 15.0 14.9 14.5 8.6 7.4 15.0 15.0 2.6 7.8 10.4 14.2 2.4 15.0 15.0 15.0 15.0 15.0 15.0 15.0 15.0 15.0 15.0 15.0 15.0 15.0 15.0 15.0 15.0 15.0 15.0 15.0 15.0
15.0 15.0 15.0 15.0 15.0 15.0 6.7 15.0 15.0 15.0 13.4 0.1 0.0 0.0 0.0 0.4 2.1 15.0 15.0 15.0 15.0 15.0 10.3 12.8 7.2 4.4 10.2 15.0 15.0 5.8 13.7 15.0 15.0 15.0 15.0 15.0 15.0 15.0 15.0 15.0 15.0 15.0 15.0 15.0 15.0 15.0 15.0 15.0 15.0 15.0 15.0 15.0 15.0 15.0
15.0 15.0 15.0 15.0 15.0 15.0 15.0 15.0 15.0 14.5 0.2 0.0 0.0 0.0 0.3 9.7 15.0 15.0 15.0 15.0 15.0 15.0 13.7 6.9 4.5 2.0 15.0 15.0 15.0 9.4 5.2 13.9 15.0 15.0 15.0 15.0 15.0 15.0 15.0 15.0 15.0 15.0 15.0 15.0 15.0 15.0 15.0 15.0 15.0 15.0 15.0 15.0 15.0 15.0
15.0 15.0 15.0 15.0 15.0 12.1 13.7 14.6 15.0 7.6 0.1 0.0 0.0 0.0 0.1 0.2 15.0 15.0 15.0 15.0 15.0 15.0 15.0 10.4 10.5 2.6 15.0 15.0 15.0 7.5 6.8 15.0 15.0 15.0 15.0 15.0 15.0 15.0 15.0 15.0 15.0 15.0 15.0 15.0 15.0 15.0 15.0 15.0 15.0 15.0 15.0 15.0 15.0 15.0
15.0 15.0 13.9 15.0 15.0 15.0 15.0 13.5 1.9 0.0 0.1 0.7 7.8 2.4 12.9 0.1 0.2 15.0 4.1 15.0 15.0 14.9 15.0 10.7 1.5 2.8 15.0 15.0 15.0 15.0 15.0 15.0 15.0 15.0 15.0 15.0 15.0 15.0 15.0 15.0 15.0 15.0 15.0 15.0 15.0 15.0 15.0 15.0 15.0 15.0 15.0 15.0 15.0 15.0
3.0 15.0 7.1 10.2 15.0 15.0 12.1 3.0 0.0 0.0 0.2 6.6 0.1 15.0 15.0 15.0 15.0 6.0 6.5 15.0 15.0 15.0 2.5 0.9 1.7 1.0 15.0 15.0 15.0 15.0 15.0 15.0 15.0 15.0 15.0 15.0 15.0 15.0 15.0 15.0 15.0 15.0 15.0 15.0 15.0 15.0 15.0 15.0 15.0 15.0 15.0 15.0 15.0 15.0
13.6 15.0 15.0 10.3 9.1 0.0 0.0 0.0 0.1 0.0 8.3 15.0 15.0 15.0 15.0 15.0 15.0 5.8 9.0 15.0 15.0 15.0 6.5 13.0 4.6 15.0 15.0 15.0 15.0 15.0 15.0 15.0 15.0 15.0 15.0 15.0 15.0 15.0 15.0 15.0 15.0 15.0 15.0 15.0 15.0 15.0 15.0 15.0 15.0 15.0 15.0 15.0 15.0 15.0
15.0 15.0 15.0 15.0 2.8 0.0 0.0 0.0 14.3 0.3 0.0 12.1 15.0 15.0 10.6 7.2 8.1 7.7 15.0 15.0 15.0 14.4 2.8 3.3 11.2 13.3 15.0 15.0 15.0 15.0 15.0 15.0 15.0 15.0 15.0 15.0 15.0 15.0 15.0 15.0 15.0 15.0 15.0 15.0 15.0 15.0 15.0 15.0 15.0 15.0 15.0 15.0 15.0 15.0
2.1 2.7 3.1 0.3 0.0 0.0 0.0 0.1 13.3 14.8 0.3 0.7 13.9 2.2 4.0 14.9 5.9 14.7 15.0 15.0 4.4 14.7 0.3 15.0 15.0 15.0 15.0 15.0 15.0 15.0 15.0 15.0 15.0 15.0 15.0 15.0 15.0 15.0 15.0 15.0 15.0 15.0 15.0 15.0 15.0 15.0 15.0 15.0 15.0 15.0 15.0 15.0 15.0 15.0
0.4 4.3 0.1 1.4 0.0 1.6 0.1 7.4 10.0 2.8 0.0 6.9 4.7 12.0 1.0 0.2 1.3 0.4 3.4 13.9 0.2 0.2 2.7 15.0 15.0 15.0 15.0 15.0 15.0 15.0 15.0 15.0 15.0 4.2 15.0 15.0 15.0 15.0 15.0 15.0 15.0 15.0 15.0 15.0 15.0 15.0 15.0 15.0 15.0 15.0 15.0 15.0 15.0 15.0
3.4 3.0 0.1 0.1 0.0 0.0 0.0 13.5 0.0 0.1 0.0 0.0 0.5 1.1 0.3 0.6 0.2 7.4 0.1 0.4 4.1 15.0 15.0 15.0 15.0 15.0 15.0 15.0 15.0 15.0 15.0 15.0 15.0 15.0 15.0 15.0 15.0 15.0 15.0 15.0 15.0 15.0 15.0 15.0 15.0 15.0 15.0 15.0 15.0 15.0 15.0 15.0 15.0 15.0
15.0 10.0 0.1 0.1 0.1 0.1 0.0 0.0 3.7 13.6 0.0 0.0 0.0 0.0 0.2 0.7 7.3 0.1 0.0 0.0 0.1 9.5 15.0 15.0 15.0 15.0 15.0 15.0 15.0 15.0 15.0 15.0 15.0 15.0 15.0 15.0 15.0 15.0 15.0 15.0 15.0 15.0 15.0 15.0 15.0 15.0 15.0 15.0 15.0 15.0 15.0 15.0 15.0 15.0
0.1 0.5 0.2 2.3 0.0 0.0 0.0 0.0 0.0 0.5 0.0 0.0 0.0 0.0 0.0 0.3 0.0 0.0 0.1 0.1 5.5 11.5 0.3 1.6 0.6 14.2 15.0 15.0 15.0 15.0 15.0 15.0 15.0 15.0 15.0 15.0 15.0 15.0 15.0 15.0 15.0 15.0 15.0 15.0 15.0 15.0 15.0 15.0 15.0 15.0 15.0 15.0 15.0 15.0
0.1 0.5 13.7 1.5 0.2 0.1 0.1 0.6 0.1 0.0 0.0 0.0 0.0 0.0 0.0 0.0 0.2 0.1 0.1 0.1 0.6 0.6 0.2 0.1 0.0 0.1 10.2 15.0 15.0 15.0 15.0 15.0 15.0 15.0 15.0 15.0 15.0 15.0 15.0 15.0 15.0 15.0 15.0 15.0 15.0 15.0 15.0 0.6 15.0 15.0 15.0 15.0 15.0 15.0
0.1 1.2 6.3 8.0 0.0 0.0 0.2 9.0 9.0 7.6 1.0 0.1 0.0 0.1 0.0 0.2 0.3 0.2 0.1 0.1 0.1 1.7 2.1 1.0 0.1 0.0 0.1 11.4 15.0 15.0 15.0 15.0 15.0 15.0 15.0 15.0 15.0 15.0 15.0 15.0 15.0 15.0 15.0 15.0 15.0 15.0 15.0 0.7 3.4 15.0 8.2 15.0 15.0 15.0
0.0 0.0 0.1 1.8 0.5 13.0 12.4 8.8 11.8 1.5 0.4 1.1 0.0 0.1 0.3 0.3 0.1 0.1 0.1 0.1 0.1 0.4 0.6 0.1 0.1 0.2 0.1 0.1 0.1 0.1 3.6 15.0 15.0 15.0 15.0 15.0 15.0 15.0 15.0 15.0 15.0 15.0 15.0 15.0 15.0 15.0 7.6 0.2 0.3 0.7 0.5 15.0 0.4 15.0
0.1 0.0 5.7 1.4 15.0 14.3 0.3 0.1 0.3 0.6 0.0 0.0 3.9 1.1 0.1 0.1 0.1 0.1 0.1 0.1 0.4 0.1 0.0 0.0 0.0 0.0 0.1 0.2 0.1 0.0 0.0 2.1 15.0 0.0 0.0 0.0 0.0 0.4 15.0 13.2 15.0 15.0 14.0 0.0 0.0 0.1 0.1 0.1 0.1 0.1 8.8 13.1 0.2 6.5
1.5 15.0 15.0 15.0 8.6 0.2 0.0 0.0 0.0 0.0 0.0 3.2 4.7 0.1 0.1 0.1 0.1 0.1 0.1 0.2 2.2 0.2 0.2 0.1 0.0 0.0 0.0 0.0 0.0 0.0 0.0 0.1 0.2 0.0 0.0 0.0 0.0 0.2 0.0 0.0 0.1 0.1 0.1 0.0 0.0 0.0 0.0 0.0 0.0 0.0 0.0 0.0 0.0 0.1
15.0 15.0 15.0 14.7 0.6 0.3 0.1 0.0 0.0 0.0 0.0 0.0 0.1 0.2 0.1 0.1 0.1 0.1 0.1 0.1 0.2 1.7 4.4 1.4 0.1 0.1 0.0 0.0 0.0 0.0 0.0 0.0 0.0 0.2 0.1 0.1 0.0 0.0 0.0 0.0 0.0 0.0 0.0 0.0 0.0 0.0 0.0 0.0 0.0 0.0 0.0 0.0 0.0 0.0
15.0 15.0 15.0 15.0 9.7 0.1 0.1 0.1 0.0 0.1 0.0 0.1 0.1 0.0 0.0 0.1 0.1 0.1 0.1 0.1 0.1 0.7 1.0 0.9 0.3 0.2 0.3 0.0 0.0 0.0 0.0 0.0 0.0 0.0 0.0 0.0 0.0 0.0 0.0 0.0 0.0 0.0 0.0 0.0 0.0 0.0 0.0 0.0 0.0 0.0 0.0 0.0 0.0 0.0
15.0 15.0 15.0 15.0 15.0 15.0 15.0 13.6 2.1 3.2 0.9 0.1 0.1 0.1 0.1 0.1 0.1 0.1 0.1 0.1 0.1 0.1 0.1 0.1 0.2 0.7 0.2 0.2 0.1 0.0 0.0 0.0 0.0 0.1 0.1 0.1 0.1 0.0 0.0 0.0 0.0 0.0 0.0 0.0 0.0 0.0 0.0 0.0 0.0 0.0 0.0 0.0 0.0 0.0